Stündliche Wetter Aboleshevo

Heute, 23 Juni, Mittwoch

Zeit Temperatur Niederschläge Wind Luftdruck Luftfeuchtigkeit
00:00 +21°C° 0 mm 2 m/S 747 mmHg 80%
01:00 +21°C° 0 mm 2 m/S 747 mmHg 84%
02:00 +20°C° 0 mm 2 m/S 748 mmHg 87%
03:00 +21°C° 0 mm 2 m/S 748 mmHg 87%
04:00 +22°C° 0 mm 1 m/S 748 mmHg 86%
05:00 +23°C° 0 mm 1 m/S 748 mmHg 86%
06:00 +25°C° 0 mm 1 m/S 748 mmHg 79%
07:00 +27°C° 0 mm 1 m/S 748 mmHg 72%
08:00 +29°C° 0 mm 1 m/S 748 mmHg 65%
09:00 +30°C° 0 mm 2 m/S 748 mmHg 59%
10:00 +31°C° 0 mm 2 m/S 748 mmHg 53%
11:00 +32°C° 0 mm 2 m/S 748 mmHg 47%
12:00 +32°C° 0 mm 2 m/S 748 mmHg 46%
13:00 +34°C° 0 mm 2 m/S 748 mmHg 44%
14:00 +34°C° 0 mm 2 m/S 748 mmHg 43%
15:00 +34°C° 0 mm 2 m/S 748 mmHg 46%
16:00 +34°C° 0 mm 2 m/S 748 mmHg 49%
17:00 +32°C° 0 mm 1 m/S 748 mmHg 52%
18:00 +30°C° 0 mm 1 m/S 747 mmHg 57%
19:00 +28°C° 0 mm 1 m/S 747 mmHg 62%
20:00 +26°C° 0 mm 1 m/S 747 mmHg 67%
21:00 +25°C° 0 mm 1 m/S 747 mmHg 69%
22:00 +24°C° 0 mm 1 m/S 747 mmHg 71%
23:00 +23°C° 0 mm 2 m/S 747 mmHg 72%

Morgen, 24 Juni, Donnerstag

Zeit Temperatur Niederschläge Wind Luftdruck Luftfeuchtigkeit
00:00 +23°C° 0 mm 2 m/S 748 mmHg 73%
01:00 +21°C° 0 mm 2 m/S 748 mmHg 74%
02:00 +21°C° 0 mm 2 m/S 748 mmHg 75%
03:00 +21°C° 0 mm 2 m/S 748 mmHg 76%
04:00 +21°C° 0 mm 2 m/S 748 mmHg 77%
05:00 +23°C° 0 mm 2 m/S 748 mmHg 78%
06:00 +25°C° 0 mm 2 m/S 748 mmHg 72%
07:00 +27°C° 0 mm 2 m/S 748 mmHg 67%
08:00 +28°C° 0 mm 2 m/S 748 mmHg 61%
09:00 +30°C° 0 mm 2 m/S 748 mmHg 56%
10:00 +31°C° 0 mm 2 m/S 748 mmHg 52%
11:00 +32°C° 0 mm 2 m/S 747 mmHg 47%
12:00 +34°C° 0 mm 2 m/S 747 mmHg 45%
13:00 +34°C° 0 mm 2 m/S 747 mmHg 43%
14:00 +35°C° 0 mm 2 m/S 747 mmHg 40%
15:00 +34°C° 0 mm 2 m/S 746 mmHg 45%
16:00 +34°C° 0 mm 2 m/S 746 mmHg 49%
17:00 +32°C° 0 mm 2 m/S 746 mmHg 53%
18:00 +30°C° 0 mm 2 m/S 746 mmHg 60%
19:00 +29°C° 0 mm 2 m/S 746 mmHg 67%
20:00 +27°C° 0 mm 1 m/S 746 mmHg 73%
21:00 +25°C° 0.2 mm 1 m/S 746 mmHg 77%
22:00 +24°C° 0.2 mm 1 m/S 746 mmHg 81%
23:00 +22°C° 0.2 mm 1 m/S 746 mmHg 85%

übermorgen, 25 Juni, Freitag

Zeit Temperatur Niederschläge Wind Luftdruck Luftfeuchtigkeit
00:00 +21°C° 0.3 mm 1 m/S 746 mmHg 88%
01:00 +21°C° 0.3 mm 1 m/S 746 mmHg 90%
02:00 +19°C° 0.3 mm 2 m/S 746 mmHg 93%
03:00 +20°C° 0 mm 2 m/S 746 mmHg 93%
04:00 +21°C° 0 mm 1 m/S 746 mmHg 92%
05:00 +22°C° 0 mm 1 m/S 745 mmHg 91%
06:00 +24°C° 0 mm 1 m/S 745 mmHg 84%
07:00 +26°C° 0 mm 2 m/S 745 mmHg 77%
08:00 +28°C° 0 mm 2 m/S 745 mmHg 69%
09:00 +30°C° 0 mm 2 m/S 745 mmHg 63%
10:00 +31°C° 0 mm 2 m/S 745 mmHg 56%
11:00 +34°C° 0 mm 2 m/S 745 mmHg 49%
12:00 +34°C° 0 mm 2 m/S 745 mmHg 47%
13:00 +35°C° 0 mm 3 m/S 745 mmHg 46%
14:00 +35°C° 0 mm 3 m/S 745 mmHg 44%
15:00 +32°C° 0.6 mm 4 m/S 744 mmHg 54%
16:00 +28°C° 0.6 mm 5 m/S 744 mmHg 65%
17:00 +24°C° 0.6 mm 6 m/S 744 mmHg 75%
18:00 +22°C° 2.5 mm 5 m/S 744 mmHg 81%
19:00 +21°C° 2.5 mm 3 m/S 744 mmHg 86%
20:00 +19°C° 2.5 mm 2 m/S 744 mmHg 91%
21:00 +19°C° 0.1 mm 2 m/S 744 mmHg 93%
22:00 +18°C° 0.1 mm 2 m/S 744 mmHg 94%
23:00 +19°C° 0.1 mm 1 m/S 744 mmHg 95%

26 Juni, Samstag

Zeit Temperatur Niederschläge Wind Luftdruck Luftfeuchtigkeit
00:00 +18°C° 0 mm 2 m/S 743 mmHg 95%
01:00 +17°C° 0 mm 2 m/S 743 mmHg 95%
02:00 +17°C° 0 mm 2 m/S 743 mmHg 94%
03:00 +18°C° 0 mm 2 m/S 743 mmHg 94%
04:00 +18°C° 0 mm 2 m/S 743 mmHg 93%
05:00 +19°C° 0 mm 2 m/S 743 mmHg 92%
06:00 +21°C° 0 mm 2 m/S 743 mmHg 84%
07:00 +24°C° 0 mm 2 m/S 743 mmHg 75%
08:00 +26°C° 0 mm 2 m/S 743 mmHg 67%
09:00 +27°C° 0 mm 2 m/S 743 mmHg 62%
10:00 +29°C° 0 mm 2 m/S 743 mmHg 57%
11:00 +30°C° 0 mm 2 m/S 743 mmHg 52%
12:00 +31°C° 0 mm 2 m/S 743 mmHg 51%
13:00 +33°C° 0 mm 3 m/S 743 mmHg 50%
14:00 +33°C° 0 mm 3 m/S 743 mmHg 48%
15:00 +32°C° 0 mm 2 m/S 742 mmHg 52%
16:00 +32°C° 0 mm 2 m/S 742 mmHg 55%
17:00 +31°C° 0 mm 2 m/S 741 mmHg 59%
18:00 +28°C° 1.4 mm 2 m/S 742 mmHg 69%
19:00 +25°C° 1.4 mm 3 m/S 742 mmHg 79%
20:00 +21°C° 1.4 mm 4 m/S 742 mmHg 89%
21:00 +21°C° 1 mm 3 m/S 742 mmHg 90%
22:00 +20°C° 1 mm 2 m/S 742 mmHg 91%
23:00 +19°C° 1 mm 2 m/S 742 mmHg 91%

27 Juni, Sonntag

Zeit Temperatur Niederschläge Wind Luftdruck Luftfeuchtigkeit
00:00 +19°C° 0 mm 2 m/S 742 mmHg 91%
01:00 +20°C° 0 mm 1 m/S 742 mmHg 92%
02:00 +19°C° 0 mm 1 m/S 742 mmHg 92%
03:00 +20°C° 0.1 mm 1 m/S 742 mmHg 92%
04:00 +21°C° 0.1 mm 1 m/S 742 mmHg 92%
05:00 +21°C° 0.1 mm 1 m/S 742 mmHg 93%
06:00 +23°C° 0 mm 1 m/S 742 mmHg 86%
07:00 +25°C° 0 mm 1 m/S 742 mmHg 79%
08:00 +26°C° 0 mm 1 m/S 742 mmHg 72%
09:00 +28°C° 0 mm 1 m/S 742 mmHg 66%
10:00 +29°C° 0 mm 1 m/S 742 mmHg 60%
11:00 +30°C° 0 mm 2 m/S 742 mmHg 55%
12:00 +31°C° 0 mm 2 m/S 742 mmHg 52%
13:00 +32°C° 0 mm 2 m/S 742 mmHg 50%
14:00 +32°C° 0 mm 2 m/S 742 mmHg 48%
15:00 +30°C° 1.6 mm 4 m/S 742 mmHg 58%
16:00 +27°C° 1.6 mm 5 m/S 742 mmHg 68%
17:00 +24°C° 1.6 mm 7 m/S 742 mmHg 79%
18:00 +22°C° 1.7 mm 5 m/S 742 mmHg 83%
19:00 +21°C° 1.7 mm 3 m/S 741 mmHg 87%
20:00 +21°C° 1.7 mm 1 m/S 741 mmHg 91%
21:00 +20°C° 0.1 mm 2 m/S 741 mmHg 92%
22:00 +19°C° 0.1 mm 3 m/S 742 mmHg 93%
23:00 +19°C° 0.1 mm 3 m/S 742 mmHg 94%

28 Juni, Montag

Zeit Temperatur Niederschläge Wind Luftdruck Luftfeuchtigkeit
00:00 +19°C° 0 mm 3 m/S 742 mmHg 94%
01:00 +18°C° 0 mm 2 m/S 741 mmHg 95%
02:00 +19°C° 0 mm 1 m/S 741 mmHg 95%
03:00 +20°C° 0 mm 1 m/S 741 mmHg 94%
04:00 +20°C° 0 mm 1 m/S 741 mmHg 93%
05:00 +21°C° 0 mm 1 m/S 741 mmHg 92%
06:00 +22°C° 0 mm 1 m/S 741 mmHg 85%
07:00 +24°C° 0 mm 1 m/S 741 mmHg 79%
08:00 +25°C° 0 mm 2 m/S 741 mmHg 73%
09:00 +27°C° 0 mm 2 m/S 741 mmHg 68%
10:00 +28°C° 0 mm 2 m/S 741 mmHg 64%
11:00 +29°C° 0 mm 2 m/S 741 mmHg 60%
12:00 +29°C° 0.1 mm 2 m/S 741 mmHg 62%
13:00 +29°C° 0.1 mm 2 m/S 741 mmHg 64%
14:00 +29°C° 0.1 mm 2 m/S 740 mmHg 66%
15:00 +28°C° 0.7 mm 3 m/S 740 mmHg 71%
16:00 +28°C° 0.7 mm 3 m/S 740 mmHg 76%
17:00 +27°C° 0.7 mm 3 m/S 739 mmHg 81%
18:00 +25°C° 0.7 mm 2 m/S 740 mmHg 85%
19:00 +24°C° 0.7 mm 2 m/S 740 mmHg 88%
20:00 +23°C° 0.7 mm 1 m/S 740 mmHg 92%
21:00 +22°C° 0.2 mm 1 m/S 740 mmHg 93%
22:00 +21°C° 0.2 mm 1 m/S 740 mmHg 94%
23:00 +21°C° 0.2 mm 1 m/S 740 mmHg 95%
Mehr zeigen

Wir brauchen deine Erlaubnis

Meteoprog und unser Service Anbieter werden persönliche Daten aufbewahren, so wie Cookies, Geräte Bezeichnung oder ähnliche Technologien von deinem Gerät und Prozess, so wie Persönliche Daten Inhalte und Werbungen, genauso wie social Media und den Verkehr zu analysieren.

  • Aufbewahrung und/oder Zugang zu deiner Geräte Informationen.

    Cookies, Geräte Bezeichnung oder andere Informationen, können aufbewahrt oder Zugang zu deinem Gerät erhalten, für den Grund, der oben angegeben wird.

  • Personalisierte Werbung und Inhalte, Messungen, Einblick in das Publikum und Produkt Entwicklung.

    Werbungen und Inhalte können personalisiert werden, basierend auf ein Profil. Mehr Daten können besser personalisierte Werbungen und Inhalte hinzufügen. Werbung und Inhalte können gezeigt und gemessen werden. Einblicke über das Publikum, welche die Werbung gesehen haben und den Inhalt, können abgeleitet werden. So wie Daten können genutzt werden, um es zu verbessern oder die Benutzer Erfahrung zu verbessern das System und die Software.

Wenn du “Ich stimme zu” klickst, erlaubst du uns, die Cookies zu benutzen die Geräte Bezeichnung, den Web oder ähnliche Technologien zu benutzen. Deine Settings, können in deinem Gerät bei deinem Browser geändert werden.

Für den bestimmten Zweck, berechtigten Interessen beruhen darauf, mehr als auf den Inhalt. Du kannst mehr darüber in unseren Privaten und Cookie Politik lesen.